Voltar ao catálogo

STARLINK-32250

AtivoComunicaçõesVLEO
NORAD 60425·PAYLOAD·🇺🇸 United States

Lançado Aug 12, 2024 de Cape Canaveral Space Force Station

Loading…

Próximas Passagens (próximas 24 horas)

TLE

AtualizadoSource: CelesTrak SupGP

Época: Sep 15, 2026, 03:32 UTC

1 60425C 24144A   26258.14770833 -.00012701  00000+0 -37534-3 0  2583
2 60425  53.1580  54.4108 0001231  92.0574 290.5146 15.34390362    11

Acompanhe STARLINK-32250 em tempo real com AllMySat

Download on the App Store